Wetbulb
44.96 45.07 45.02 45.09 45.29 45.73 45.52 45.05 45.23 45.73 45.58 46.06 48.40 48.62 48.45 48.66 49.96 48.66 47.90 52.75 52.84 45.45 47.62 50.31 50.45 46.52 47.21 45.38 41.09 44.19 41.80 42.95 40.72 37.67 37.08 36.06 35.81 37.00 38.10 40.88 38.70 37.22 35.48 35.79 35.75 32.44 30.98 46.48 46.47 40.28 42.03 42.89 42.45 41.76
44.80 44.65 44.91 45.13 45.41 45.36 45.04 45.10 45.87 45.11 44.92 45.86 48.60 48.40 48.24 48.49 49.88 49.83 46.33 55.05 56.17 49.04 47.43 51.52 52.03 52.13 51.99 50.80 46.99 47.10 42.52 42.51 41.81 39.31 39.79 38.94 38.87 38.14 37.85 34.23 44.95 39.13 41.22 40.95 39.03 37.92 44.94 46.42 45.58 46.16 45.72 43.04 41.93 40.69
44.49 44.36 44.82 45.05 45.18 45.17 45.04 45.19 45.01 45.33 45.84 48.00 48.21 48.08 48.09 48.53 49.07 48.67 50.00 51.65 51.44 47.43 45.39 47.28 48.05 52.36 54.75 52.99 52.90 46.39 48.16 50.72 47.61 47.71 43.59 42.63 39.40 39.45 34.06 38.39 41.36 46.24 47.89 42.25 41.75 43.84 44.48 45.74 46.92 46.42 45.76 43.60 43.00 42.39
44.36 44.45 44.84 44.94 44.58 44.37 44.68 44.09 43.98 44.57 44.87 47.78 47.70 47.62 47.92 48.26 48.70 49.26 51.15 52.27 50.51 48.67 40.33 44.36 53.16 50.95 55.04 53.94 53.80 52.98 52.26 51.04 50.58 47.67 42.78 38.54 38.51 44.57 41.06 43.39 41.54 43.84 46.35 43.10 41.15 43.77 45.26 45.44 45.99 45.61 45.00 44.86 43.95 43.40
44.25 44.28 44.64 44.31 44.44 44.40 43.21 43.11 43.60 44.36 46.23 47.56 47.43 47.52 47.88 48.40 49.27 50.93 51.24 52.16 52.44 47.19 41.19 43.85 49.74 53.11 54.63 54.04 53.58 52.49 50.39 47.72 43.96 41.15 38.00 38.39 42.76 42.49 41.63 42.26 42.07 45.67 43.70 40.34 38.97 45.20 44.00 43.47 45.61 46.51 44.71 44.17 43.81 42.31
43.78 44.28 44.34 44.00 44.01 43.91 43.18 43.40 43.74 44.64 47.09 47.12 47.45 47.66 47.86 48.36 48.92 49.85 47.72 52.38 50.59 50.34 46.54 39.93 48.56 49.62 52.28 52.19 51.32 50.83 50.28 48.60 47.01 44.60 43.01 44.82 47.43 42.79 37.74 37.41 45.93 48.01 49.21 48.26 44.66 46.42 46.49 46.06 46.79 47.29 44.96 44.06 43.74 42.92
43.74 43.85 43.96 43.60 43.82 43.45 42.86 43.21 44.01 44.40 46.84 46.73 47.08 47.41 47.94 47.80 48.65 46.46 44.69 48.57 49.01 50.28 45.28 39.72 42.38 47.82 50.06 50.30 48.70 48.30 48.85 47.75 46.35 43.77 43.47 42.95 42.76 44.66 39.13 38.02 46.07 48.75 48.96 48.07 47.95 47.11 43.97 45.59 43.80 45.65 45.09 44.50 44.43 42.95
43.35 43.63 43.56 43.31 43.95 43.73 43.14 43.62 43.96 45.19 46.61 46.66 47.14 47.27 48.19 49.04 49.11 47.00 50.69 50.52 49.84 49.88 47.82 36.50 39.95 43.96 49.12 44.50 43.50 46.93 45.99 45.02 44.97 42.81 43.33 43.19 43.51 42.23 34.87 44.68 46.98 47.45 47.61 47.44 47.81 48.07 46.69 46.11 45.73 44.57 44.23 42.99 40.31 38.48
42.98 43.07 43.11 43.39 44.01 43.71 42.94 43.05 43.76 45.64 46.73 46.87 47.17 47.58 48.39 47.25 43.69 47.02 50.33 51.25 51.25 48.61 41.59 39.88 36.68 34.53 47.37 44.03 44.61 45.27 45.94 37.34 44.19 41.49 43.32 43.53 40.44 34.77 42.30 46.22 46.32 47.00 46.11 44.83 46.11 45.99 45.84 44.14 43.58 43.16 42.35 40.74 38.47 37.07
42.79 42.84 43.14 43.61 44.05 43.66 42.23 42.57 43.70 46.66 46.59 46.66 45.20 42.93 34.02 43.38 49.12 49.93 47.73 42.49 42.71 45.04 44.71 40.86 42.38 40.27 44.22 43.20 42.10 40.75 41.67 38.12 32.82 40.88 43.96 39.33 38.86 45.44 46.75 48.77 48.64 47.17 46.58 46.28 43.08 41.70 42.79 42.34 42.50 42.06 41.44 40.78 38.88 37.11
42.92 43.33 43.77 44.00 44.34 43.31 42.41 42.11 44.19 46.49 45.57 41.07 39.23 38.15 44.36 49.01 46.18 42.82 36.00 36.71 38.18 37.44 42.15 43.40 43.90 42.88 46.73 40.32 38.55 41.56 34.82 37.52 32.49 39.15 38.61 35.98 37.16 43.20 47.01 48.17 48.36 47.70 47.41 47.03 47.06 46.06 45.77 44.75 43.03 41.82 41.03 39.95 37.90 34.89
43.84 43.89 44.05 44.13 44.26 43.60 43.13 43.38 45.03 42.65 40.06 41.26 43.33 46.30 46.34 41.95 37.84 37.18 34.37 36.18 34.91 36.20 40.67 42.03 43.00 43.75 43.56 43.90 39.94 37.38 33.75 33.61 32.04 40.21 32.51 32.45 38.82 44.34 47.66 47.77 47.47 47.04 46.45 46.30 46.53 45.15 45.19 45.22 44.46 42.65 40.39 37.53 34.25 31.10
43.63 43.78 44.02 43.91 44.16 43.98 44.97 45.08 45.69 45.12 45.72 44.86 42.04 39.67 38.43 34.67 32.33 32.15 30.97 32.66 30.51 38.65 41.81 42.47 40.25 41.47 41.96 43.00 39.29 36.30 31.80 31.30 38.32 30.18 31.94 34.92 41.58 45.53 47.24 47.19 46.61 47.30 46.71 46.13 44.86 43.52 42.37 39.80 41.11 39.19 33.82 32.15 30.57 27.70
43.54 43.75 43.96 44.03 43.81 44.52 45.41 45.40 44.98 43.50 41.11 35.75 31.10 31.92 32.12 30.58 31.40 33.37 34.03 34.54 38.13 42.16 44.15 42.13 39.96 39.30 38.96 38.05 37.16 34.43 35.72 36.59 28.90 26.56 29.80 36.55 43.01 44.01 44.98 46.58 46.71 45.09 44.95 42.65 38.12 37.49 36.64 35.99 33.99 32.88 32.59 31.09 28.85 26.42
43.68 43.75 43.86 43.85 43.94 43.38 42.49 42.44 42.39 41.22 38.04 34.93 33.76 24.54 29.94 33.00 34.03 35.81 37.89 39.79 43.20 45.67 42.27 40.06 38.93 38.81 36.39 36.24 37.06 36.16 32.70 29.47 30.65 30.45 33.79 40.06 43.03 43.72 43.74 43.48 42.32 39.53 37.68 37.92 38.49 36.75 34.76 34.65 34.20 30.02 29.96 30.80 29.32 26.80
43.64 42.38 41.39 43.67 43.23 42.77 41.74 40.32 39.12 38.81 36.24 35.60 34.96 30.76 33.58 32.32 30.18 34.78 37.37 39.14 44.98 43.16 41.53 40.59 37.05 34.61 34.03 35.10 33.49 31.17 31.77 29.96 32.48 35.89 39.56 42.75 41.63 41.78 41.39 41.09 40.25 39.80 39.77 39.54 38.71 37.65 36.88 35.01 33.89 31.25 30.88 29.82 28.00 27.83
41.58 36.07 43.54 43.22 43.15 42.44 41.78 38.42 37.07 33.51 32.66 32.36 31.83 36.48 33.81 34.36 34.40 37.04 39.26 42.29 46.11 42.69 37.18 37.87 34.05 33.72 35.87 31.64 31.57 34.20 30.84 33.99 37.81 37.51 40.00 42.10 42.42 40.86 41.07 40.45 38.99 39.28 38.71 38.49 38.15 37.12 35.43 34.90 33.30 31.60 29.49 29.38 29.66 28.29
35.20 41.74 43.30 43.35 41.90 39.96 38.29 36.96 33.70 32.87 30.23 31.94 30.86 33.51 37.44 36.91 37.19 38.59 41.32 44.55 42.65 40.63 39.80 37.53 38.30 34.49 31.40 32.30 31.27 34.53 37.44 37.32 38.02 38.32 39.21 40.82 41.22 41.81 41.59 40.17 39.93 39.64 38.69 37.65 37.42 36.55 35.03 33.97 33.29 31.62 30.73 29.97 28.62 27.79
39.69 41.91 43.06 43.14 39.85 35.04 31.37 33.08 35.17 30.34 31.41 32.49 36.22 35.47 36.22 37.56 40.67 42.05 43.73 46.32 44.69 43.59 41.00 38.89 35.85 32.57 33.55 36.65 36.13 37.33 37.79 35.41 35.55 35.95 37.86 39.79 41.00 40.87 40.71 40.57 40.11 39.05 37.92 37.52 37.19 36.17 35.70 35.35 33.12 32.09 30.76 30.30 28.92 28.11
42.98 43.06 42.78 42.25 41.79 32.95 31.26 32.65 37.36 32.06 32.21 32.75 33.92 33.20 35.53 36.73 40.45 42.27 44.02 44.55 44.16 40.21 35.24 32.56 35.46 39.09 39.24 40.67 41.53 41.34 38.38 39.51 39.45 35.66 34.96 37.34 40.36 40.08 39.77 39.82 39.14 38.52 38.22 38.26 37.53 35.92 35.06 33.18 33.29 32.18 31.25 30.33 29.05 27.95
39.95 39.62 41.43 39.32 36.66 34.98 33.13 34.85 33.56 32.83 33.86 31.50 33.52 34.16 32.51 37.96 36.42 39.38 40.73 43.39 37.10 31.51 31.80 39.31 39.58 39.84 41.50 41.50 42.31 41.50 40.64 40.66 39.19 38.26 39.82 38.63 41.11 39.53 38.89 39.09 39.47 39.21 37.59 36.90 36.05 34.15 33.39 33.11 32.79 32.47 30.72 30.20 29.70 29.84
37.44 41.10 35.29 36.96 33.22 33.50 30.20 33.11 32.92 33.65 36.10 36.91 34.17 36.45 34.83 32.89 31.47 33.49 41.92 38.83 34.09 37.84 40.11 40.14 40.01 40.21 40.19 40.13 39.62 40.61 40.51 40.34 39.66 38.16 36.81 39.41 38.79 38.50 37.04 37.52 37.64 36.58 36.63 36.77 36.68 35.11 33.80 33.58 33.68 32.90 31.69 29.69 30.21 30.57
40.05 37.14 33.89 32.64 29.54 24.39 25.76 35.51 31.89 35.70 32.24 32.65 36.09 33.84 33.52 31.77 35.07 41.75 36.35 40.88 40.37 40.11 41.02 41.48 42.37 42.50 41.27 41.26 41.64 40.98 41.09 40.11 39.27 39.54 40.88 41.38 40.24 38.48 36.95 34.78 37.15 36.39 35.03 33.29 34.91 34.99 34.10 32.80 32.33 32.72 31.69 31.77 30.97 29.91
38.97 31.78 29.31 27.92 26.53 23.49 32.21 32.41 34.67 34.69 36.67 33.43 33.57 32.22 34.83 33.86 38.65 34.87 34.42 33.92 36.73 40.08 40.16 41.60 42.51 40.54 40.58 40.19 38.34 38.35 39.33 40.42 40.28 41.26 41.96 40.93 39.45 39.80 40.52 38.17 36.37 36.39 36.56 34.87 35.51 34.62 34.26 33.22 31.76 32.79 32.05 30.82 30.41 29.86
22.84 21.44 26.59 27.12 29.89 26.40 25.81 30.58 32.50 33.97 31.23 34.14 33.04 31.24 32.86 35.73 32.34 29.36 33.37 36.91 35.12 35.87 37.82 40.54 41.06 40.58 37.94 37.66 38.42 38.62 41.15 40.86 40.59 39.96 41.11 42.04 40.36 39.79 39.23 39.53 38.51 36.46 36.69 35.23 33.61 33.61 32.62 33.13 32.56 32.28 31.46 30.74 29.96 28.85
15.88 25.48 24.63 26.82 28.62 28.20 29.27 24.55 23.84 30.19 32.41 31.36 34.18 35.13 36.07 33.08 30.03 28.70 34.42 34.22 35.03 35.95 34.34 38.83 40.18 39.54 39.17 40.50 39.74 40.00 39.80 41.82 42.64 40.34 40.78 41.67 40.69 39.19 38.02 37.23 36.95 36.91 37.29 35.16 34.76 33.87 33.95 32.91 33.02 33.46 31.77 29.15 29.03 29.64
22.03 24.25 30.72 34.01 32.77 33.19 31.18 30.80 33.86 32.00 29.16 29.61 33.55 31.60 30.26 29.24 29.12 33.86 35.84 35.90 35.00 36.31 40.31 42.22 42.48 41.08 40.11 40.16 41.49 43.22 43.66 43.67 42.37 41.35 41.49 41.00 40.71 40.95 40.24 38.11 37.60 37.66 38.72 36.18 35.21 34.55 34.80 34.11 33.02 33.93 33.56 33.32 33.25 33.09
29.40 31.29 27.84 30.83 31.29 32.10 29.15 25.39 25.10 26.40 32.19 34.23 32.52 27.52 24.87 25.68 29.95 31.55 33.02 34.61 35.63 37.84 41.61 44.02 44.55 43.89 41.81 41.59 41.08 42.07 41.24 41.89 43.04 42.24 40.95 39.48 39.90 39.09 39.67 39.20 38.40 34.83 38.13 35.80 36.00 35.68 35.07 34.35 34.08 33.78 33.72 32.84 32.62 32.89
29.15 31.57 31.06 27.87 27.67 27.67 26.08 27.70 29.61 30.55 30.86 31.32 26.55 28.26 27.97 29.13 29.45 30.07 31.97 33.22 35.99 40.02 39.54 39.66 37.91 38.53 37.73 37.55 37.60 37.37 37.93 41.54 40.00 34.31 32.32 33.64 32.18 34.03 36.31 35.92 34.86 35.62 35.87 36.29 34.28 35.52 35.58 35.39 34.92 33.35 33.22 32.97 32.56 32.28
27.51 31.76 27.62 26.55 25.24 23.86 25.63 28.38 28.94 30.47 32.74 30.78 31.11 30.23 29.13 29.06 30.10 32.06 32.21 32.75 32.93 32.68 32.54 33.26 33.64 35.65 34.55 35.44 34.35 34.85 34.59 34.38 33.56 35.07 35.13 34.28 34.23 33.01 33.53 34.48 35.36 35.86 35.58 34.32 33.82 32.77 31.52 32.66 31.74 30.43 29.92 31.52 32.51 32.38
30.75 30.63 27.01 26.57 24.69 27.48 28.59 30.46 31.71 31.60 30.10 30.00 29.62 27.94 27.11 28.18 29.66 30.64 30.71 31.53 32.69 33.07 33.64 33.46 33.46 33.63 33.81 33.81 33.81 34.19 33.81 33.26 33.99 35.09 34.06 33.75 34.28 34.68 34.71 34.71 34.35 34.67 34.28 34.29 33.34 33.29 33.04 32.92 33.01 32.57 32.38 31.97 32.09 32.14
28.05 26.90 25.37 23.72 25.63 29.69 30.46 30.79 30.48 30.13 29.95 29.64 29.78 30.96 29.89 26.40 24.15 26.79 29.13 30.62 30.56 30.21 30.68 31.92 32.41 32.10 32.69 32.66 33.07 33.20 33.70 32.89 33.79 33.45 33.99 34.52 33.08 33.45 34.49 34.26 33.79 33.61 33.61 33.42 33.39 33.31 33.25 33.13 32.60 32.59 32.35 32.14 31.91 31.99
27.05 27.42 28.01 27.81 27.29 27.29 28.56 30.54 29.24 27.62 27.55 26.49 26.37 27.45 25.30 24.17 21.22 25.88 29.30 29.74 29.12 28.59 29.50 31.15 32.16 32.55 32.89 33.05 33.04 32.89 33.07 33.40 33.68 33.01 33.07 33.23 33.02 32.69 33.07 33.26 33.43 33.43 33.35 32.99 32.98 32.93 32.71 32.50 32.32 32.45 32.30 32.27 32.24 32.08
MSLP
1005.72 1006.43 1007.10 1007.54 1007.97 1008.50 1009.21 1009.54 1009.79 1009.87 1010.07 1010.24 1010.11 1010.37 1010.75 1011.36 1011.86 1012.31 1011.46 1010.77 1010.37 1010.00 1009.40 1008.60 1008.12 1007.90 1007.89 1008.06 1008.86 1009.20 1009.38 1009.98 1010.79 1011.90 1013.09 1013.85 1013.74 1013.31 1013.33 1013.19 1013.34 1014.14 1015.14 1016.30 1017.09 1017.52 1016.84 1015.70 1016.04 1016.97 1019.11 1020.50 1021.46 1022.84
1006.03 1006.62 1007.16 1007.55 1007.86 1008.30 1008.38 1008.68 1009.20 1009.57 1009.80 1010.07 1009.68 1010.09 1010.64 1011.24 1011.60 1012.05 1011.75 1009.99 1010.03 1010.29 1009.64 1008.85 1008.34 1007.97 1007.86 1008.05 1008.30 1009.33 1009.87 1010.28 1010.84 1012.17 1013.38 1013.93 1014.26 1014.10 1014.11 1014.10 1013.51 1014.30 1014.54 1015.92 1017.20 1017.37 1016.92 1016.46 1016.87 1018.07 1019.12 1020.70 1022.70 1023.30
1006.37 1006.77 1007.26 1007.62 1007.73 1008.40 1008.94 1008.99 1009.22 1009.73 1009.91 1009.14 1009.42 1010.00 1010.51 1011.02 1011.35 1011.66 1011.26 1010.38 1010.06 1009.94 1009.87 1009.27 1008.82 1008.24 1007.88 1008.05 1008.16 1008.80 1009.80 1009.93 1010.72 1011.22 1013.05 1014.19 1014.84 1014.76 1014.91 1014.54 1014.15 1014.27 1014.51 1016.01 1017.03 1018.21 1018.00 1017.95 1018.68 1019.37 1020.23 1021.45 1023.10 1024.15
1006.70 1006.84 1007.16 1007.62 1008.04 1008.16 1009.20 1009.56 1009.23 1008.95 1009.14 1009.09 1009.45 1010.00 1010.52 1010.96 1011.10 1011.26 1010.84 1010.12 1010.22 1009.90 1010.51 1010.30 1008.78 1008.56 1008.24 1008.19 1008.10 1008.38 1009.07 1009.91 1010.88 1011.68 1013.36 1014.64 1015.11 1014.78 1015.00 1014.64 1014.49 1014.42 1014.74 1016.32 1018.06 1018.86 1018.96 1019.74 1019.78 1020.33 1021.46 1022.55 1023.72 1024.91
1007.18 1007.29 1007.33 1007.74 1008.11 1008.44 1008.41 1008.37 1008.66 1008.82 1008.85 1009.12 1009.62 1010.14 1010.53 1010.67 1010.74 1010.76 1010.37 1010.10 1009.94 1010.01 1010.42 1010.59 1009.66 1009.06 1008.64 1008.52 1008.70 1008.91 1009.48 1010.43 1011.88 1013.24 1014.57 1015.34 1014.92 1015.02 1015.26 1015.06 1014.92 1014.49 1015.03 1016.20 1017.42 1017.82 1018.22 1020.05 1020.56 1020.94 1021.85 1023.16 1024.18 1025.10
1007.24 1007.36 1007.84 1008.32 1008.55 1008.86 1008.82 1008.95 1009.45 1009.37 1008.89 1009.38 1009.85 1010.20 1010.51 1010.61 1010.66 1010.72 1010.64 1010.02 1009.84 1009.59 1009.76 1011.02 1010.98 1010.30 1009.70 1009.50 1009.63 1010.12 1010.58 1011.34 1012.53 1013.94 1014.98 1015.13 1014.82 1015.06 1015.84 1015.84 1014.83 1014.36 1014.36 1014.66 1016.35 1017.64 1018.24 1019.84 1020.81 1021.37 1022.42 1023.68 1024.69 1025.58
1007.13 1007.62 1008.04 1008.42 1008.68 1008.75 1009.08 1009.28 1009.14 1009.24 1009.07 1009.52 1009.89 1010.33 1010.56 1010.54 1010.55 1010.55 1010.47 1010.15 1009.75 1009.45 1010.08 1011.68 1011.90 1011.30 1010.80 1010.80 1011.32 1011.70 1011.81 1012.57 1013.09 1014.47 1015.16 1015.36 1015.23 1015.19 1015.92 1015.80 1015.02 1014.68 1014.68 1015.36 1016.36 1017.68 1019.84 1020.35 1021.34 1022.12 1023.05 1024.25 1025.27 1026.31
1007.83 1007.83 1008.12 1008.36 1008.56 1009.06 1009.33 1009.40 1009.28 1009.26 1009.30 1009.69 1010.20 1010.42 1010.39 1010.22 1010.17 1010.45 1010.21 1009.64 1009.64 1009.87 1010.39 1011.89 1012.77 1012.32 1011.77 1012.52 1013.00 1012.97 1013.38 1013.76 1014.44 1015.20 1015.28 1015.56 1015.56 1015.63 1015.94 1015.38 1015.30 1015.25 1015.68 1016.38 1017.14 1017.41 1018.56 1020.49 1021.74 1022.88 1023.83 1024.86 1026.12 1027.32
1007.96 1008.39 1008.54 1008.65 1008.84 1009.30 1009.76 1009.80 1009.54 1009.60 1009.61 1010.00 1010.37 1010.38 1010.21 1010.42 1010.78 1010.48 1010.06 1009.82 1009.82 1010.46 1010.52 1011.60 1012.52 1013.07 1012.50 1013.23 1013.57 1013.87 1014.29 1015.58 1015.76 1015.88 1015.79 1015.93 1016.14 1015.81 1015.18 1015.39 1015.50 1015.72 1016.14 1017.49 1018.34 1018.88 1019.99 1021.01 1022.32 1023.43 1024.42 1025.70 1026.84 1028.36
1008.37 1008.82 1008.80 1008.95 1009.29 1009.80 1010.27 1010.32 1010.07 1009.78 1010.00 1010.52 1010.80 1010.83 1011.24 1011.30 1010.82 1010.50 1010.68 1010.39 1010.18 1010.48 1010.95 1011.95 1012.30 1012.78 1012.90 1013.84 1014.72 1015.37 1015.75 1016.45 1016.80 1016.47 1015.97 1016.06 1015.96 1014.96 1014.61 1014.85 1015.22 1015.91 1016.67 1017.56 1018.97 1020.61 1021.26 1022.12 1022.93 1023.98 1024.98 1026.18 1027.41 1028.87
1008.84 1009.03 1009.14 1009.29 1009.65 1010.14 1010.60 1010.58 1010.27 1010.34 1010.54 1010.86 1011.30 1011.88 1011.86 1011.34 1011.36 1011.75 1012.62 1012.66 1012.48 1012.42 1012.08 1012.14 1012.18 1012.57 1013.13 1014.12 1015.28 1015.60 1016.46 1016.99 1017.33 1016.86 1016.64 1016.82 1016.16 1014.80 1014.38 1014.95 1015.45 1015.92 1016.63 1017.32 1017.84 1019.30 1020.29 1021.15 1022.83 1024.34 1025.88 1027.16 1028.46 1029.74
1009.20 1009.47 1009.67 1009.82 1010.17 1010.60 1010.82 1010.64 1010.68 1010.76 1011.14 1011.20 1011.18 1011.48 1011.72 1012.11 1012.48 1013.09 1013.42 1013.49 1012.82 1012.32 1012.10 1011.95 1012.44 1012.66 1013.40 1013.68 1015.06 1016.26 1016.89 1017.63 1017.52 1016.95 1017.22 1017.14 1015.42 1014.44 1014.42 1015.16 1015.92 1016.63 1017.50 1018.36 1019.07 1020.34 1021.48 1022.50 1023.56 1024.88 1026.42 1027.94 1029.28 1030.50
1009.97 1010.09 1010.34 1010.63 1010.88 1010.95 1011.06 1010.88 1011.04 1011.16 1010.71 1011.02 1011.37 1012.30 1013.18 1014.22 1014.03 1013.55 1013.27 1013.20 1012.51 1011.81 1011.71 1011.76 1012.77 1013.01 1013.59 1014.20 1015.73 1016.46 1017.30 1017.76 1017.31 1017.80 1017.73 1016.45 1015.25 1014.88 1014.90 1015.58 1016.64 1017.30 1018.10 1019.07 1020.42 1021.32 1022.35 1023.48 1024.58 1025.67 1027.38 1028.76 1029.90 1031.23
1010.60 1010.93 1011.00 1011.05 1011.22 1011.24 1011.43 1011.48 1011.73 1011.70 1011.74 1011.70 1012.13 1013.16 1013.73 1013.92 1013.48 1012.66 1011.98 1011.39 1011.04 1010.97 1011.16 1011.50 1012.76 1013.51 1014.44 1015.20 1016.06 1016.84 1017.34 1017.31 1018.12 1018.34 1017.43 1015.91 1015.47 1015.49 1015.72 1016.34 1017.10 1018.38 1019.02 1020.08 1021.34 1022.41 1023.56 1024.64 1026.06 1027.16 1027.97 1029.10 1030.19 1031.64
1011.06 1011.29 1011.73 1011.74 1011.94 1012.28 1012.32 1012.26 1012.42 1012.85 1013.07 1012.98 1012.82 1013.14 1013.16 1012.55 1012.32 1011.77 1011.31 1010.87 1010.37 1010.38 1010.64 1011.72 1013.06 1013.86 1015.10 1015.72 1016.26 1016.96 1017.43 1017.59 1017.64 1016.98 1016.23 1015.56 1015.81 1016.07 1016.67 1017.38 1018.16 1019.21 1020.39 1021.48 1022.42 1023.48 1024.72 1025.78 1026.88 1028.16 1029.02 1029.72 1030.62 1031.80
1011.33 1011.53 1011.91 1012.30 1012.62 1012.70 1012.81 1013.17 1013.93 1014.23 1014.12 1013.99 1013.74 1013.54 1012.89 1012.60 1012.17 1011.51 1011.27 1010.78 1009.84 1010.20 1010.72 1011.56 1013.37 1014.50 1015.37 1015.70 1016.38 1016.64 1017.11 1016.90 1016.17 1015.88 1015.43 1015.69 1016.49 1016.93 1017.56 1018.37 1019.21 1020.10 1021.04 1022.17 1023.24 1024.18 1025.23 1026.31 1027.26 1028.42 1029.56 1030.26 1031.04 1031.71
1011.36 1011.90 1012.32 1012.52 1012.70 1013.02 1013.15 1014.27 1015.23 1015.45 1015.38 1014.73 1014.29 1013.81 1013.58 1013.01 1012.20 1011.31 1010.80 1010.21 1009.48 1009.97 1011.30 1012.17 1013.40 1014.22 1015.01 1015.50 1016.16 1016.30 1016.27 1015.64 1015.34 1015.60 1015.75 1016.04 1016.68 1017.56 1018.35 1019.15 1020.02 1020.84 1021.86 1022.84 1023.80 1024.89 1025.80 1026.81 1027.79 1028.81 1029.93 1030.88 1031.36 1032.12
1012.24 1012.38 1012.76 1012.78 1013.10 1013.59 1014.58 1015.34 1016.36 1016.30 1015.84 1015.09 1014.61 1014.02 1013.41 1012.83 1012.06 1011.08 1010.32 1009.85 1009.85 1010.40 1011.10 1011.78 1012.46 1013.67 1014.54 1014.85 1015.34 1015.07 1015.39 1015.74 1015.92 1016.13 1016.49 1016.92 1017.43 1018.09 1018.64 1019.51 1020.56 1021.33 1022.25 1023.20 1023.97 1024.95 1026.00 1026.98 1027.98 1029.02 1029.84 1030.76 1031.64 1032.48
1012.76 1013.02 1013.16 1013.41 1013.72 1014.20 1015.28 1016.37 1016.16 1016.09 1015.52 1014.90 1013.98 1013.41 1012.98 1012.36 1011.41 1010.78 1010.18 1009.85 1009.81 1010.15 1010.92 1011.72 1012.82 1013.66 1013.86 1013.55 1013.84 1014.60 1015.24 1015.68 1016.43 1017.14 1017.47 1017.66 1017.93 1018.53 1019.30 1019.98 1020.82 1021.80 1022.54 1023.32 1024.22 1025.13 1026.10 1026.82 1027.65 1028.66 1029.65 1030.50 1031.31 1032.31
1012.94 1013.34 1013.48 1013.53 1013.39 1014.20 1015.36 1015.84 1015.65 1015.60 1015.14 1014.37 1013.84 1013.58 1013.00 1012.31 1011.33 1010.70 1010.33 1010.32 1010.58 1011.03 1012.01 1012.74 1013.20 1013.24 1013.13 1012.89 1013.14 1013.75 1014.77 1015.52 1016.16 1017.42 1018.31 1018.48 1018.63 1019.10 1019.72 1020.31 1021.18 1022.08 1022.99 1023.88 1024.74 1025.43 1026.46 1027.53 1028.29 1028.90 1029.56 1030.22 1031.00 1031.88
1013.33 1013.93 1014.14 1014.19 1014.25 1014.72 1015.36 1015.34 1015.40 1015.16 1014.48 1014.15 1013.70 1013.38 1012.78 1012.09 1011.49 1011.21 1011.37 1011.35 1011.91 1012.40 1012.94 1013.09 1013.19 1013.22 1013.18 1013.28 1013.50 1014.08 1015.02 1015.51 1016.14 1016.63 1017.09 1018.18 1018.94 1019.51 1020.26 1020.83 1021.47 1022.30 1023.13 1024.06 1024.84 1025.83 1026.46 1027.14 1027.94 1028.74 1029.47 1030.24 1030.90 1031.56
1013.56 1014.13 1014.91 1015.08 1015.33 1015.43 1015.57 1015.52 1015.18 1014.53 1014.28 1013.56 1013.56 1013.22 1013.04 1012.68 1012.50 1012.27 1012.06 1012.46 1012.82 1012.83 1012.76 1013.09 1013.34 1013.57 1013.94 1014.24 1014.58 1014.98 1015.52 1016.10 1016.66 1017.14 1017.70 1018.34 1019.22 1019.89 1020.63 1021.08 1021.76 1022.68 1023.45 1023.99 1024.58 1025.40 1026.28 1027.02 1027.85 1028.59 1029.36 1030.18 1030.78 1031.54
1013.99 1014.36 1015.17 1015.89 1016.39 1016.27 1015.77 1015.09 1015.01 1014.06 1013.80 1013.45 1013.34 1013.59 1013.44 1013.16 1012.76 1012.36 1012.91 1013.10 1012.98 1012.72 1012.61 1013.03 1013.40 1013.75 1014.28 1014.87 1015.22 1015.79 1016.20 1016.56 1017.16 1017.61 1018.07 1018.68 1019.39 1020.09 1020.80 1021.44 1021.88 1022.66 1023.62 1024.42 1024.76 1025.53 1026.37 1027.10 1027.87 1028.62 1029.33 1030.08 1030.82 1031.64
1014.20 1015.34 1015.96 1016.43 1016.37 1016.40 1015.69 1014.95 1014.12 1013.50 1013.24 1013.32 1013.53 1013.73 1013.68 1013.19 1012.76 1013.17 1013.94 1014.14 1013.76 1013.18 1013.06 1013.39 1013.66 1014.53 1015.22 1015.64 1016.18 1016.58 1016.93 1017.10 1017.62 1018.04 1018.38 1018.90 1019.64 1020.42 1020.92 1021.68 1022.16 1022.70 1023.32 1024.13 1024.84 1025.61 1026.39 1027.14 1027.82 1028.54 1029.26 1029.95 1030.66 1031.32
1015.00 1015.61 1016.05 1016.17 1016.15 1016.14 1015.70 1014.40 1013.80 1013.56 1013.35 1013.34 1013.62 1013.76 1013.86 1013.36 1013.42 1013.87 1014.05 1014.04 1013.88 1013.75 1013.71 1013.77 1014.00 1014.52 1015.27 1015.99 1016.55 1016.91 1017.07 1017.29 1017.72 1018.20 1018.76 1019.14 1019.85 1020.56 1021.32 1021.94 1022.54 1022.95 1023.27 1024.12 1025.05 1025.65 1026.42 1027.03 1027.66 1028.36 1029.03 1029.66 1030.30 1031.05
1015.00 1015.24 1015.34 1014.86 1015.02 1015.28 1014.79 1014.27 1013.81 1013.48 1013.34 1013.38 1013.31 1013.56 1013.77 1014.00 1014.30 1014.54 1014.37 1014.26 1014.12 1013.88 1013.79 1013.98 1014.17 1014.80 1015.36 1015.61 1016.31 1016.86 1017.30 1017.55 1017.84 1018.40 1018.96 1019.29 1019.82 1020.22 1020.94 1021.73 1022.44 1023.01 1023.10 1023.62 1024.54 1025.47 1026.22 1026.82 1027.47 1028.20 1028.86 1029.41 1029.92 1030.56
1014.54 1014.49 1014.54 1014.54 1014.62 1014.62 1014.14 1013.88 1013.52 1013.43 1013.44 1013.38 1013.34 1013.85 1014.01 1014.88 1015.24 1015.08 1014.85 1014.88 1014.56 1014.34 1013.98 1013.62 1013.94 1014.57 1015.12 1015.57 1016.02 1016.43 1016.95 1017.42 1017.85 1018.29 1018.89 1019.55 1020.04 1020.41 1020.75 1020.98 1021.45 1022.07 1022.77 1023.44 1024.18 1024.92 1025.76 1026.58 1027.29 1027.92 1028.55 1029.18 1029.57 1030.01
1014.32 1014.28 1014.32 1014.43 1014.53 1014.34 1014.12 1013.97 1013.42 1013.22 1013.16 1012.93 1013.28 1014.34 1015.16 1015.94 1016.47 1016.26 1015.92 1015.67 1015.28 1014.72 1014.23 1014.03 1014.13 1014.52 1015.26 1015.72 1016.07 1016.62 1017.20 1017.56 1018.10 1018.70 1019.46 1020.08 1020.31 1020.58 1020.95 1021.40 1021.83 1022.18 1022.76 1023.39 1024.09 1024.86 1025.53 1026.15 1026.82 1027.53 1028.12 1028.66 1029.20 1029.66
1014.05 1013.82 1013.55 1013.71 1013.85 1014.11 1014.00 1013.66 1013.54 1013.76 1014.16 1014.18 1014.58 1015.56 1016.66 1017.51 1017.76 1017.43 1016.81 1016.02 1015.10 1014.62 1014.59 1014.89 1015.56 1015.56 1016.16 1016.69 1017.06 1017.40 1017.69 1017.94 1018.49 1019.37 1019.94 1020.44 1020.77 1021.08 1020.95 1021.36 1021.94 1022.35 1022.88 1023.68 1024.31 1024.77 1025.27 1025.82 1026.43 1027.20 1027.67 1028.10 1028.62 1029.22
1013.75 1013.68 1013.72 1013.87 1013.95 1014.23 1014.52 1014.61 1014.44 1014.35 1014.28 1014.80 1015.43 1016.74 1017.51 1018.06 1018.34 1018.08 1017.16 1016.57 1016.09 1016.22 1016.19 1016.21 1016.36 1016.46 1017.28 1017.63 1018.35 1018.71 1018.85 1018.85 1018.88 1019.41 1019.88 1020.39 1020.82 1020.75 1021.01 1021.60 1022.15 1022.66 1023.19 1023.82 1024.48 1025.12 1025.68 1026.24 1026.84 1027.59 1027.89 1028.15 1028.52 1028.95
1013.91 1013.82 1013.91 1013.77 1014.12 1014.31 1014.22 1014.08 1013.88 1014.12 1014.99 1015.33 1015.59 1016.79 1017.62 1018.34 1018.83 1019.08 1018.88 1018.28 1017.63 1017.42 1017.30 1017.64 1017.79 1018.08 1018.37 1018.68 1018.89 1019.23 1019.83 1020.00 1019.86 1019.86 1020.04 1020.27 1020.59 1020.96 1021.36 1021.79 1022.26 1022.72 1023.24 1023.78 1024.35 1024.86 1025.44 1026.00 1026.45 1026.93 1027.34 1027.63 1027.96 1028.32
1014.07 1013.84 1013.82 1014.16 1014.38 1014.42 1014.19 1013.94 1014.09 1014.66 1015.16 1015.85 1016.44 1017.00 1017.92 1018.84 1019.91 1020.46 1020.76 1019.98 1019.33 1019.13 1019.34 1019.23 1019.21 1019.59 1019.66 1019.78 1019.76 1019.81 1019.92 1020.42 1020.50 1020.66 1020.68 1021.01 1021.26 1021.42 1021.66 1022.05 1022.50 1022.97 1023.46 1023.96 1024.44 1024.85 1025.26 1025.56 1026.03 1026.48 1026.89 1027.22 1027.57 1027.93
1014.47 1014.12 1013.86 1013.95 1014.21 1014.52 1014.62 1014.44 1015.03 1016.01 1016.58 1017.18 1017.84 1018.41 1019.23 1019.93 1020.91 1021.55 1021.35 1021.24 1021.00 1020.94 1020.78 1020.56 1020.44 1020.26 1020.28 1020.36 1020.48 1020.59 1020.66 1020.85 1020.99 1021.23 1021.31 1021.49 1021.72 1021.92 1022.07 1022.34 1022.65 1023.03 1023.45 1023.88 1024.29 1024.63 1025.01 1025.30 1025.65 1026.00 1026.34 1026.66 1026.99 1027.32
Wind_Speed
17 17 16 14 12 11 13 12 10 10 9 14 12 16 15 12 12 6 5 5 2 2 4 5 2 3 3 3 6 4 6 5 5 6 5 3 3 3 4 5 6 5 6 3 3 5 1 3 4 7 7 6 10 8
16 15 13 12 11 13 11 8 8 7 11 19 18 16 13 13 13 8 4 2 1 2 4 2 2 3 4 2 7 3 6 3 4 6 2 4 3 3 3 1 3 2 5 6 3 4 3 3 7 11 13 15 8 18
14 13 12 11 12 12 12 8 6 6 9 14 16 14 13 12 11 8 3 3 2 2 3 5 4 6 4 4 1 7 2 3 4 3 5 3 6 3 3 1 4 2 4 6 5 6 8 15 13 11 13 16 15 18
13 11 11 13 13 8 12 8 3 6 13 12 14 13 11 10 9 8 4 1 1 1 6 5 3 4 6 5 4 3 7 6 6 4 4 4 5 1 3 3 4 4 5 6 7 6 14 8 11 17 17 18 18 15
13 12 13 13 11 8 7 8 4 9 12 15 13 12 10 10 7 4 2 2 2 2 5 1 3 7 5 7 9 8 7 6 4 5 5 2 2 4 2 3 3 1 7 6 6 12 9 7 12 18 20 18 17 19
12 12 15 12 10 13 9 7 2 11 15 14 13 11 10 6 3 2 1 2 3 2 5 4 3 7 8 7 11 10 5 5 4 5 2 1 1 5 4 2 4 1 3 10 7 6 13 14 14 15 17 17 16 16
11 14 14 11 10 11 8 3 3 9 14 13 11 9 8 6 2 3 3 3 5 1 5 4 3 5 4 5 5 5 5 3 5 3 3 3 2 4 3 3 3 3 8 16 21 21 12 15 12 16 18 14 16 14
13 11 10 8 9 11 6 4 4 6 14 13 11 8 6 3 4 2 2 4 4 3 2 5 1 5 4 3 3 3 4 5 7 2 2 3 3 3 2 1 5 9 13 16 15 11 17 17 17 16 16 17 16 15
12 8 9 7 12 11 8 2 7 4 13 13 10 6 1 4 3 3 6 6 1 1 4 4 5 4 2 2 2 5 4 5 3 3 0 4 1 2 5 9 12 16 9 12 14 19 20 20 18 17 17 16 17 13
11 10 10 9 13 15 10 2 9 6 11 11 2 3 3 2 4 4 4 6 7 5 5 4 2 3 5 1 3 3 3 2 2 4 2 3 3 3 6 9 12 16 20 21 21 11 16 16 17 17 16 14 15 13
12 11 10 11 13 17 11 6 5 10 6 2 3 1 2 4 3 4 3 3 2 2 0 2 3 7 2 5 3 1 3 1 3 4 5 1 4 5 8 10 11 17 19 14 15 15 16 21 19 15 14 13 13 13
12 11 10 10 12 13 9 7 2 3 1 1 2 3 1 3 4 5 2 2 2 5 1 6 4 5 2 4 5 3 3 3 3 1 5 3 5 3 11 14 14 14 13 15 17 16 15 16 14 15 15 13 12 12
11 11 10 10 12 8 7 3 14 12 4 1 3 5 4 3 3 5 7 3 1 3 4 4 4 4 4 5 4 4 3 4 2 4 4 6 3 5 10 11 12 12 15 16 13 11 13 11 13 16 13 10 14 12
10 11 10 10 10 5 8 10 12 9 4 3 4 6 4 4 6 5 4 5 5 4 9 7 4 5 2 4 3 4 2 3 3 0 7 4 5 6 7 10 16 14 15 15 13 14 15 15 12 10 13 13 15 14
10 12 13 9 14 21 25 21 14 4 4 4 3 4 5 4 3 4 1 1 2 8 5 5 5 5 3 4 2 4 2 2 6 6 4 4 6 9 10 10 13 13 12 12 13 14 14 15 14 10 8 10 12 13
11 9 4 14 19 18 19 14 6 4 3 3 1 2 4 2 3 1 3 2 4 5 4 5 5 5 2 5 3 4 7 7 5 4 3 7 7 6 9 10 11 11 13 14 12 14 14 13 14 13 10 10 11 14
4 2 13 18 17 14 12 6 4 5 4 5 2 2 3 4 4 2 4 4 4 6 4 5 5 6 4 4 3 5 7 4 4 2 3 7 11 11 10 11 11 13 13 13 14 12 12 12 14 13 13 8 10 9
2 9 22 16 7 5 3 4 2 1 3 3 3 4 3 3 3 3 2 4 5 4 4 5 5 4 6 7 4 4 2 1 3 4 5 7 9 10 10 14 12 12 13 13 13 13 14 14 12 8 11 11 10 9
7 11 17 12 5 4 4 2 2 1 3 3 4 3 3 4 4 4 3 6 3 3 6 3 4 4 4 4 4 4 5 4 5 3 4 6 9 11 11 12 13 12 13 14 14 10 9 9 9 9 9 10 9 7
15 17 11 6 5 3 4 2 1 2 2 3 2 3 3 4 4 1 3 2 3 3 4 3 3 3 4 2 3 6 5 8 9 6 4 3 5 9 10 11 9 11 10 10 9 10 9 8 6 8 8 9 10 9
9 4 7 4 4 4 3 1 1 3 3 2 2 2 3 3 2 3 3 1 4 2 2 1 2 1 4 4 5 8 9 8 7 5 10 7 5 8 7 7 11 9 10 9 9 7 7 8 7 8 8 8 5 7
3 8 3 4 3 3 2 2 2 3 2 2 1 2 2 2 2 0 2 4 1 2 3 4 3 4 5 5 4 6 8 9 7 6 7 8 6 8 7 8 9 8 7 8 9 9 7 7 8 8 8 6 7 7
8 3 4 3 3 4 5 0 2 3 3 2 2 2 3 1 2 1 3 1 2 2 2 4 5 5 9 6 9 8 8 10 8 7 7 6 6 6 7 5 6 9 8 4 5 7 7 8 8 8 7 8 8 7
6 4 3 4 3 3 0 3 4 3 2 2 2 1 1 3 1 4 4 3 3 2 3 7 8 8 6 6 5 5 5 5 7 7 6 8 7 6 7 5 5 4 5 5 6 7 7 7 8 8 9 9 9 9
7 4 5 4 3 2 3 2 1 1 2 3 3 1 2 1 3 2 4 3 1 2 3 4 5 5 5 4 4 4 5 7 8 8 6 7 6 6 5 4 4 4 5 8 7 9 7 7 7 9 10 10 12 11
3 7 7 6 4 3 4 3 6 5 3 3 3 4 4 3 3 1 2 2 3 4 4 6 6 5 4 4 6 6 5 6 8 7 6 7 9 10 10 10 8 5 4 6 9 10 11 8 10 13 9 9 11 12
2 4 4 2 2 1 3 2 3 4 4 4 4 3 2 4 2 1 1 3 3 3 3 4 5 5 5 4 4 6 8 9 7 6 6 7 7 7 9 11 13 7 7 9 9 11 13 11 11 11 10 8 10 10
3 2 5 6 5 2 4 3 4 3 1 2 3 4 4 3 1 3 3 4 5 5 3 3 4 5 5 3 4 6 5 6 8 8 7 4 2 4 5 4 4 9 7 8 9 8 9 10 11 11 11 11 11 9
3 2 2 3 3 0 1 2 2 2 2 2 3 3 3 2 3 3 4 6 5 3 5 6 5 6 7 7 7 5 4 8 10 9 7 4 2 3 4 5 5 5 7 8 8 9 12 11 11 10 12 11 9 8
2 2 1 1 2 2 1 2 2 0 1 3 6 4 3 3 4 5 6 6 8 6 4 3 3 5 5 6 5 7 6 4 3 5 7 6 6 2 4 6 7 7 8 8 8 6 7 6 7 5 7 7 7 8
1 2 0 2 3 0 2 2 1 6 3 5 7 5 4 3 2 8 9 8 7 7 8 8 8 7 6 5 4 6 5 5 5 6 5 5 5 5 5 5 5 7 8 9 8 8 9 8 8 9 10 10 11 10
1 2 3 4 3 1 1 2 3 4 4 4 3 3 4 3 4 4 8 7 8 9 10 8 7 6 4 3 4 5 7 3 4 3 6 4 3 3 5 5 5 6 7 7 7 8 10 9 8 8 8 10 10 11
3 4 3 3 2 2 2 2 4 4 4 3 4 3 4 3 5 2 2 6 6 6 5 5 4 4 5 6 5 4 5 5 7 6 6 6 5 4 3 4 4 5 7 6 6 7 9 10 9 9 10 10 11 11
Wind_Direction
167 166 168 178 185 193 188 171 203 219 242 246 233 174 177 168 183 169 260 225 270 144 321 359 42 104 70 93 125 227 54 356 42 69 108 185 121 207 102 171 171 151 126 154 85 84 209 171 61 137 157 44 112 105
155 155 162 174 186 190 162 178 186 190 276 290 180 173 167 170 185 180 264 276 118 194 190 270 80 69 97 151 124 51 156 141 165 90 71 113 78 61 136 150 23 65 159 145 136 207 320 343 113 103 120 125 119 113
142 153 165 173 174 170 160 144 144 227 255 198 164 159 170 172 186 183 244 288 348 124 356 41 351 329 41 39 190 112 326 159 66 158 146 133 89 114 110 242 104 113 138 101 82 358 74 98 92 102 119 116 121 122
139 157 163 162 154 152 139 144 164 299 317 176 155 158 162 168 188 200 219 277 240 134 98 299 319 17 321 12 33 111 128 63 99 65 85 106 112 138 181 184 132 192 86 111 73 94 83 59 109 121 112 116 119 119
144 163 157 144 140 144 118 94 80 306 275 156 147 146 158 183 190 198 268 268 274 161 144 158 318 344 4 18 38 57 81 88 61 48 56 89 107 82 354 62 7 177 153 137 199 179 126 145 135 129 125 130 129 129
145 155 143 144 139 135 113 112 247 294 152 137 137 146 173 163 156 179 166 239 10 355 91 73 275 2 14 41 46 44 45 65 79 105 121 68 60 100 92 126 273 329 148 150 140 154 119 129 126 128 127 132 132 131
141 146 144 148 136 134 112 152 296 319 134 135 136 142 148 177 174 156 192 243 343 329 85 70 25 336 345 30 22 31 32 54 88 91 59 116 19 80 97 143 232 72 111 112 120 114 97 135 135 125 124 122 121 116
136 144 145 153 147 135 134 111 308 334 128 123 128 149 167 171 76 21 272 338 355 58 94 103 8 34 9 27 46 356 46 25 17 126 37 81 8 58 81 217 107 100 106 121 131 115 125 120 118 120 121 122 115 118
130 149 143 169 149 144 121 93 329 313 130 132 143 175 104 37 40 307 322 303 277 159 105 83 121 182 1 42 66 27 62 52 311 65 335 86 277 214 199 148 139 136 128 126 109 116 123 125 129 132 128 125 123 127
143 149 172 142 128 138 120 303 307 141 134 125 84 71 25 326 289 347 337 19 6 351 40 91 128 128 101 66 46 79 21 121 76 252 53 81 245 239 171 162 142 127 128 125 116 118 125 131 140 143 140 136 133 133
134 137 125 118 127 119 114 260 333 105 63 48 88 95 245 291 59 37 67 68 321 54 254 171 125 125 345 103 139 70 159 94 99 251 122 272 268 226 162 138 140 143 147 150 140 141 142 143 145 136 128 129 126 129
113 112 108 112 124 130 152 224 51 55 103 181 123 108 68 51 56 71 64 323 202 186 199 127 161 129 75 100 88 350 103 42 193 153 78 243 250 211 146 138 141 136 131 127 133 133 137 139 138 129 130 128 127 123
101 102 109 124 126 155 165 120 56 28 343 45 89 76 75 357 113 198 153 228 234 183 194 137 78 110 53 56 69 85 93 201 61 50 225 229 262 147 140 125 128 131 128 123 118 110 109 105 113 126 119 120 126 126
99 99 103 102 117 131 113 86 42 22 5 55 96 113 159 195 215 198 175 166 219 160 135 109 81 103 117 66 127 102 211 96 62 97 234 239 179 146 114 132 128 133 130 125 119 115 115 116 111 112 128 138 135 138
109 101 101 102 100 91 69 52 41 46 25 37 46 155 199 217 216 223 221 322 165 144 114 86 55 83 48 101 53 120 100 209 206 225 227 187 146 128 118 118 121 121 122 121 127 124 123 126 126 117 126 131 128 131
111 83 79 109 110 100 92 78 34 355 16 358 16 336 309 63 308 315 128 271 190 128 82 65 99 98 126 128 126 193 149 216 237 212 189 131 120 113 117 122 122 125 128 129 130 133 132 136 139 133 121 127 138 143
109 89 127 117 103 85 72 76 10 23 359 343 323 286 252 267 246 244 160 212 162 117 125 110 108 185 113 99 176 183 202 221 197 130 102 136 144 133 124 121 123 125 126 131 131 132 127 123 125 127 132 143 139 138
50 134 134 129 119 72 57 58 98 18 315 269 276 288 290 252 276 285 240 177 122 138 121 171 128 137 156 164 224 213 176 55 53 104 108 115 114 123 131 128 128 131 131 132 133 131 130 137 139 139 136 138 124 128
137 146 146 138 107 105 101 122 159 184 259 271 283 275 258 263 252 248 227 178 108 131 105 69 112 166 202 209 171 153 148 151 140 118 91 102 120 124 124 123 126 128 132 137 140 141 144 143 141 143 144 148 147 150
129 144 146 105 7 78 87 91 179 150 280 257 292 284 269 264 290 303 93 83 106 77 55 104 172 209 199 225 158 145 138 137 131 112 116 112 122 121 132 135 134 132 125 121 119 126 122 118 133 144 151 152 151 161
89 140 60 39 15 55 95 121 158 218 253 241 252 291 279 325 21 41 75 72 74 112 107 188 139 43 65 69 96 120 133 144 151 150 162 143 129 123 123 121 131 135 138 143 145 142 143 155 151 151 149 153 143 153
92 98 81 11 48 3 45 239 253 277 235 275 315 304 4 16 359 140 123 57 110 206 164 147 162 123 100 92 93 101 118 104 103 104 97 121 131 137 140 143 136 142 150 156 155 157 149 143 144 146 146 138 136 142
111 77 62 62 46 38 273 75 226 219 209 233 108 43 334 292 218 281 64 329 280 272 144 116 102 90 106 100 102 95 113 124 129 136 147 119 105 110 113 109 134 142 141 147 130 135 142 140 139 140 135 141 142 140
68 79 129 165 148 235 227 255 234 192 106 101 125 133 280 230 228 83 149 207 254 307 87 122 124 105 83 94 98 123 127 131 128 138 137 135 130 135 128 117 105 109 129 122 132 133 142 143 139 141 147 149 155 158
88 260 127 173 191 139 236 208 181 168 154 161 109 82 279 329 77 64 152 196 174 130 121 112 99 114 128 127 120 131 143 147 155 150 152 152 130 115 109 102 117 143 136 134 146 144 144 142 143 150 156 159 160 164
170 207 167 196 138 183 224 186 187 193 148 157 156 145 202 144 81 183 195 208 186 174 161 157 148 135 128 137 144 149 159 158 162 157 161 161 167 166 164 167 171 193 169 143 145 151 156 155 154 161 162 160 162 156
269 209 191 165 162 157 252 213 152 138 160 163 143 147 99 90 206 166 357 12 348 335 292 143 125 126 136 126 122 140 149 166 160 161 143 163 172 182 183 182 190 183 156 152 150 156 162 165 164 170 169 172 181 176
234 196 204 168 189 186 235 180 139 139 222 329 98 89 101 160 115 350 331 314 298 293 258 132 128 132 127 137 131 123 107 109 105 103 95 72 128 162 164 164 150 152 144 145 147 152 162 167 169 174 178 183 184 180
217 249 239 130 119 218 14 51 103 97 109 154 108 81 101 72 345 320 293 319 320 44 70 89 48 82 74 66 54 49 93 139 139 141 142 160 134 230 174 140 132 134 134 144 152 167 175 175 178 181 183 183 176 168
255 7 158 101 153 128 177 224 166 195 127 120 115 116 73 44 3 339 4 6 33 37 28 45 54 90 111 111 97 59 28 24 85 142 158 177 195 170 128 131 137 144 146 143 143 132 117 132 125 125 138 146 158 165
326 224 268 68 97 98 304 279 57 82 131 71 67 91 116 138 94 30 15 360 22 31 51 51 54 45 61 70 94 102 76 13 52 71 79 102 116 128 134 124 127 145 151 152 146 149 151 155 160 162 169 172 176 177
204 208 168 143 145 218 309 47 61 60 48 49 72 77 78 62 68 30 356 357 30 38 32 38 53 54 39 51 60 64 84 105 78 76 95 93 79 96 117 119 121 123 127 133 144 153 167 162 165 174 183 185 184 190
21 358 45 70 65 90 346 89 86 83 50 57 49 52 44 57 77 26 0 12 25 20 13 14 20 41 50 53 56 61 64 74 65 51 74 103 106 105 106 120 129 137 144 149 155 162 171 172 176 183 187 191 195 198